User: anonymous   Login
Location: Unspecified
(0.0000°N, 0.0000°E)
Time: 07:22:22
(UTC+02:00)
Language:

Cosmos 1626 Rocket - Orbit

View from above orbital plane
View from above orbital plane
View from above satellite
View from above satellite

Ground track
Ground track

The orbit data is extracted from the following two-line orbital elements,

1 15495U 85009B   15144.17287253  .00000197  00000-0  20953-4 0  9996
2 15495 082.5239 174.5746 0018840 303.3309 056.6102 14.83558628638019
Epoch (UTC): 24 May 2015 04:08:56
Eccentricity: 0.0018840
inclination: 82.5239°
perigee height: 605 km
apogee height: 631 km
right ascension of ascending node: 174.5746°
argument of perigee: 303.3309°
revolutions per day: 14.83558628
mean anomaly at epoch: 56.6102°
orbit number at epoch: 63801

The dashed part of the orbit path shows where the satellite is in the earth's shadow,  

DLR